EKRAN 2 DEB, 59986

Orbit data source: Space-Track

EKRAN 2 DEB, 59986 is space debris in GEO originally from a launch on Tue, 20 Sep 1977 UTC launched from the Tyuratam Missile And Space Complex (TTMTR). Debris objects in space refer to the collection of defunct objects orbiting the Earth. Examples of debris include non-operational satellites, rocket bodies, and fragments generated from explosions, collisions, or faulty payload assembly.

Not visible in the next 10 days
EKRAN 2 DEB details
Identifier
59986, 1977-092M
Orbit
GEO
Last TLE update18 hours ago
Origin
Flag of CISGUKOS RVSN (CIS)
ManufacturerUnknown
MissionSpacecraft
Bus & MotorUnknown
MassUnknown
Launch date (UTC)
1977-09-20 (47 years ago)
Launch vehicleUnknown
Launch site
Tyuratam Missile And Space Complex (TTMTR)
Object type
Payload
Rocket body
Debris
Shape & HBRUnknown
Radar Cross SectionRCS unknown

Expand to show TLE details & history

TLE from 18 hours ago
0 EKRAN 2 DEB
1 59986U 77092M   25035.55939207 -.00000320  00000-0  00000-0 0  9993
2 59986   5.0506 278.2805 0040512  97.0117  53.9381  1.00942064 41509
Epoch: 2025-02-04T13:25Z
Definitive object data (Epoch: 2025-02-04T13:25:31.474Z)
Latitude2.41906°
Longitude93.38776°
Altitude35,500.07 km
Speed3.089 km/s
True Right ascension04h 38m 55s
True Declination2° 24' 60"
Sunlit
Object was in daylight at TLE epoch
Visualization TLE readout
Latitude4.66775°
Longitude9.86069°
Altitude35,450.013 km
Speed3.093 km/s
Apparent Right ascension22h 56m 41s
Apparent Declination0° 49' 44"
Sunlit
Object is in daylight
Visualization observer readout
Local Sidereal Time09:46:31
Azimuth333.351° NNW
Elevation-47.775°
Doppler factor1
Orbital elements
Apogee altitude35,770.86 km
Perigee altitude35,430.73 km
Semi-major axis41,978.932 km
Eccentricity0.0040512
Inclination5.0506°
RAAN278.2805°
Arg. of periapsis97.0117°
True anomaly54.3145°
Mean anomaly53.9381°
Eccentric anomaly54.12619°
Mean motion0.25235 °/min
BSTARUnknown
Orbital period1426.61 mins
Loading historical data...
59986 neighbors
Authenticating...
Loading maneuver chart data...
Loading historical data...
Loading historical data...
Loading historical data...
Loading historical data...
Loading historical data...
Loading historical data...
Loading historical data...

EKRAN 2 DEB Visibility forecast

Observer location: undefined°, undefined

EKRAN 2 DEB is not visible in the next 10 days
Span
Click to sort rows by Start time (UTC) header in descending order
Start Az.
Max El. time (UTC)
Max El. Az.
Max El.
End time (UTC)
End Az.
|